Location: Unspecified
(0.0000°N, 0.0000°E)
Time: 15:29:39
(UTC+00:00)

AAUSAT3 - Pass Details

Date: 10 August 2024
Orbit: 756 x 773 km, 98.4° (Epoch: 17 September)

Event Time Altitude Azimuth Distance (km) Brightness Sun altitude
Rises 18:48:00 0° 351° (N) 3,208 ? -10.3°
Reaches altitude 10° 18:50:36 10° 339° (NNW) 2,288 ? -10.9°
Maximum altitude 18:54:47 27° 282° (WNW) 1,452 ? -11.9°
Drops below altitude 10° 18:59:00 10° 226° (SW) 2,306 ? -12.9°
Sets 19:01:38 0° 214° (SSW) 3,238 ? -13.6°
